CZ-3B DEB, 40852

Orbit data source: Space-Track

CZ-3B DEB, 40852 is space debris in HEO originally from a launch on Mon, 19 Dec 2011 UTC launched from the Xichang Space Center, China (XSC). Debris objects in space refer to the collection of defunct objects orbiting the Earth. Examples of debris include non-operational satellites, rocket bodies, and fragments generated from explosions, collisions, or faulty payload assembly.

Loading next visibility...
CZ-3B DEB details
Identifier
40852, 2011-077AH
Orbit
HEO
Last TLE update2 days ago
Origin
Flag of CNCASC (CN / PRC)
ManufacturerCALT
MissionSpacecraft
Bus & MotorUnknown
MassUnknown
Launch date (UTC)
2011-12-19 (13 years ago)
Launch vehicleUnknown
Launch site
Xichang Space Center, China (XSC)
Object type
Payload
Rocket body
Debris
Shape & HBRUnknown
Radar Cross SectionMedium (>0.1 m² and <1 m²)

Expand to show TLE details & history

TLE from 2 days ago
0 CZ-3B DEB
1 40852U 11077AH  24359.34625340 -.00000018  00000-0  00000-0 0  9995
2 40852  25.7728 179.3317 7386438  71.7239 350.7968  1.90687618 76053
Epoch: 2024-12-24T08:18Z
Definitive object data (Epoch: 2024-12-24T08:18:36.293Z)
Latitude-0.00072°
Longitude-38.72647°
Altitude3,733.349 km
Speed8.02 km/s
True Right ascension11h 57m 07s
True Declination0° 00' 03"
Sunlit
Object was in daylight at TLE epoch
Visualization TLE readout
Latitude21.56567°
Longitude15.26161°
Altitude887.077 km
Speed9.76 km/s
Apparent Right ascension18h 11m 08s
Apparent Declination-10° 36' 07"
Sunlit
Object is in daylight
Visualization observer readout
Local Sidereal Time10:16:43
Azimuth79.443° E
Elevation-28.619°
Doppler factor1
Orbital elements
Apogee altitude41,388.392 km
Perigee altitude802.217 km
Semi-major axis27,473.441 km
Eccentricity0.7386438
Inclination25.7728°
RAAN179.3317°
Arg. of periapsis71.7239°
True anomaly288.84802°
Mean anomaly350.7968°
Eccentric anomaly328.99941°
Mean motion0.47662 °/min
BSTARUnknown
Orbital period755.32 mins
Loading maneuver chart data...
Loading historical data...
Loading historical data...
Loading historical data...
Loading historical data...
Loading historical data...
Loading historical data...
Loading historical data...

CZ-3B DEB Visibility forecast

Observer location: undefined°, undefined

Span
Click to sort rows by Start time (UTC) header in descending order
Start Az.
Max El. time (UTC)
Max El. Az.
Max El.
End time (UTC)
End Az.
528 mins2024-12-26 23:49:27.416Z241.105° WSW2024-12-27 00:06:27.416Z187.762° SSW27.023°2024-12-27 08:37:27.416Z207.718° SW
|